Temp_Advection
nan nan nan nan nan nan nan nan nan nan nan nan nan nan nan nan nan nan nan nan nan nan nan nan nan nan nan nan nan nan nan nan nan nan nan nan nan nan nan nan nan nan nan
nan -0 0 0 0 0 0 -0 -0 -0 0 -0 -0 -0 -1 -1 -1 -1 -1 -1 -1 -1 -1 -1 -1 -0 -0 -1 -1 -1 -1 -1 0 0 0 0 1 1 0 0 0 1 nan
nan 0 0 0 0 0 0 0 -0 -0 -0 -0 -0 -0 -0 -1 -1 -1 -1 -1 -1 -1 -1 -1 -2 -1 -0 -1 -2 -1 -1 -2 0 -0 0 -0 -0 0 0 1 0 1 nan
nan 0 0 0 0 0 0 0 0 -0 -0 -0 -0 -0 -0 -1 -1 -0 -0 -0 -1 -1 -1 -1 -1 -1 -1 -1 -0 -1 -1 -2 -2 -0 -0 -0 -1 -1 -1 0 1 1 nan
nan 0 0 0 0 0 0 0 0 0 0 0 0 -0 -0 -0 -1 -1 -0 0 0 -0 -1 -1 -1 -2 -2 -1 -1 0 1 -1 -2 -1 -1 -0 1 -1 -1 -1 1 -0 nan
nan 0 0 0 0 0 0 0 0 0 0 -0 0 -0 -0 -1 -1 -1 -1 -1 -0 0 0 -1 -1 -1 -2 -2 -0 -0 0 -0 -1 -2 -3 -3 1 0 1 -1 -0 -0 nan
nan 0 0 0 0 0 0 0 0 0 0 -0 0 0 -0 -0 -1 -1 -1 -1 -1 -1 0 1 -0 -1 -2 -2 -2 1 1 -1 -2 -3 -0 -4 -5 0 1 0 -0 2 nan
nan 0 0 0 0 0 0 0 0 0 0 0 0 0 0 -0 -0 -0 -1 -1 -1 -2 -1 -0 -0 -0 -1 -1 -2 0 1 1 -2 -6 -6 -2 -1 -0 -0 1 -1 -0 nan
nan 0 0 0 0 0 0 0 0 0 0 0 0 0 -0 -0 -0 -1 -1 -1 -1 -1 -1 -1 -1 -0 1 -0 -2 -3 1 3 -1 -2 -2 -1 -8 -5 -1 -0 -2 -1 nan
nan 0 0 0 0 0 0 0 0 0 0 0 0 -0 -0 -0 -0 -1 -1 -1 -0 -0 -1 -1 -1 -0 2 2 -1 -5 -2 1 -1 -4 -4 -6 -5 -2 -0 -0 0 1 nan
nan 0 0 0 0 0 0 0 0 0 0 0 0 -0 -0 -0 -0 -0 -0 -0 -0 -1 -0 1 1 0 -1 -1 -1 -1 -1 -2 -2 -3 -1 -3 -5 -6 -2 -1 2 2 nan
nan 0 0 0 0 0 0 0 0 0 0 0 0 -0 -0 -0 -0 -0 -0 -0 -0 1 1 -0 -1 0 0 -1 -2 -1 -2 -1 -3 -4 -2 -6 -8 -10 -2 -0 2 1 nan
nan 0 0 0 0 0 0 0 0 0 0 0 0 -0 -0 -0 -0 -0 -0 0 0 0 0 -0 -0 -0 -0 -1 -1 -1 -2 -2 -5 -3 -5 -9 -6 -4 -1 0 1 0 nan
nan -0 0 0 0 0 0 0 0 0 0 0 0 -0 -0 -0 -0 -0 0 0 0 0 0 0 -0 -1 -0 -1 -1 -1 -2 -3 -4 -3 -3 -3 -5 -8 -2 0 0 -0 nan
nan -0 0 0 0 0 0 0 0 0 0 0 0 0 -0 -0 -0 -0 0 0 0 0 0 -0 -0 -0 -1 -1 -1 -1 -4 -3 -2 -3 -5 -9 -8 -5 -1 0 0 -2 nan
nan -0 0 0 0 0 0 0 0 0 -0 0 0 0 -0 -0 -0 -0 -0 0 0 0 -0 -0 -0 -1 -0 -0 -1 -2 -2 -1 -2 -3 -7 -6 -3 -5 -2 0 -1 -2 nan
nan 0 0 0 0 0 0 0 0 0 0 0 0 0 -0 -0 -0 -0 -1 -0 -1 -1 -0 -0 -0 -1 -1 -1 -2 -2 -1 -2 -2 -6 -6 -4 -6 -5 -1 0 -1 1 nan
nan 0 0 0 0 0 0 0 0 0 -0 0 0 0 -0 -0 -0 -0 -0 -0 -1 -1 -0 -0 -1 -1 -1 -1 -1 -2 -3 -2 -4 -4 -2 -3 -5 -1 0 0 0 2 nan
nan -0 -0 0 0 0 0 0 0 0 -0 -0 0 0 -0 -0 -0 -0 -0 -0 -0 -1 -0 -0 -1 -0 -1 0 2 -0 0 1 -1 -3 -7 -2 -1 0 1 0 1 1 nan
nan -0 -0 0 0 0 0 0 0 0 -0 -0 0 0 0 -0 -0 -0 -0 -1 -0 -0 -0 -0 -0 -0 -1 4 3 0 -0 1 2 -0 1 1 2 1 2 1 1 0 nan
nan 0 0 -0 -0 1 0 0 0 0 0 -0 -0 1 0 -0 -0 -0 -0 -0 -0 -0 -1 -1 0 -1 2 2 0 1 0 3 3 2 2 1 1 2 1 1 1 0 nan
nan 0 1 -0 -0 0 0 0 0 0 0 -0 -0 -0 0 0 -0 -0 -0 -0 -1 -1 -1 -1 -1 -0 1 1 1 -1 1 2 4 1 2 1 1 0 0 1 1 1 nan
nan 0 0 -0 -0 0 0 0 0 0 0 0 -0 -0 -0 0 -0 0 -0 -0 -1 -1 -1 -1 -2 -0 -1 0 -1 0 0 1 2 1 3 2 1 1 1 0 1 1 nan
nan 0 1 -0 -0 0 -0 0 0 -0 0 0 0 -0 -0 -0 -0 -0 -0 -0 -0 -0 -0 -0 -0 -1 -1 -2 -2 -1 1 1 1 1 2 2 2 2 2 2 1 1 nan
nan 0 0 0 0 -0 -0 0 0 0 0 0 0 -0 -0 -0 -0 -0 -0 -0 -0 -0 -0 -0 -0 -0 -0 -1 -0 -1 0 1 1 2 1 0 1 0 0 2 2 3 nan
nan nan nan nan nan nan nan nan nan nan nan nan nan nan nan nan nan nan nan nan nan nan nan nan nan nan nan nan nan nan nan nan nan nan nan nan nan nan nan nan nan nan nan
Wind_Speed
16 17 14 8 6 6 9 12 16 18 21 21 20 20 20 19 17 17 18 18 17 18 20 24 29 25 30 31 33 37 37 32 22 41 40 37 34 34 36 29 28 27 24
20 17 12 8 7 8 10 13 17 19 21 22 21 20 21 20 21 20 20 20 22 22 22 22 25 31 29 32 33 38 39 39 22 29 35 29 34 38 36 35 30 31 28
18 13 13 11 11 10 11 14 17 19 21 22 22 21 21 21 21 21 22 24 24 23 24 25 26 27 35 36 35 38 40 42 34 23 33 25 19 36 41 40 32 32 31
17 12 12 13 11 10 12 14 17 19 21 22 22 21 22 24 23 25 28 28 27 27 27 26 26 28 32 40 40 39 42 41 53 28 33 46 36 44 27 38 38 34 34
15 14 14 12 10 11 13 14 17 19 21 23 23 22 23 24 26 28 31 31 30 30 30 30 30 29 31 36 45 43 44 47 51 54 24 30 43 44 39 31 42 37 35
16 13 12 12 11 11 12 14 17 20 23 23 22 22 23 24 27 29 32 33 33 33 33 33 33 32 33 36 41 49 47 50 50 58 58 24 41 50 44 37 42 49 42
14 11 10 11 13 13 14 15 17 20 22 23 21 20 21 23 27 30 33 34 36 36 36 37 38 38 37 37 40 49 51 52 54 56 65 57 31 50 48 44 45 47 40
11 11 10 11 13 14 15 16 18 20 22 23 20 20 20 23 27 30 32 35 37 39 39 41 42 43 42 41 43 48 52 47 46 53 68 57 27 47 50 51 49 36 36
9 8 9 11 13 15 14 15 18 20 22 21 20 19 20 23 27 30 32 35 38 41 42 42 43 45 45 44 45 50 57 53 51 49 55 68 65 40 56 53 57 50 32
8 9 10 12 13 14 13 14 17 20 21 20 19 20 21 24 27 30 33 35 38 40 42 44 44 45 46 43 43 48 55 54 58 56 55 68 54 28 58 61 59 49 42
8 12 11 12 14 13 13 14 16 19 20 20 19 20 22 24 27 30 32 35 39 40 42 42 42 43 45 44 44 47 49 47 47 47 51 57 70 47 57 58 62 55 51
10 10 11 13 14 13 13 13 16 19 20 19 18 19 22 24 27 29 31 34 37 37 38 39 40 43 46 46 46 48 47 49 55 56 53 56 69 61 56 59 60 58 53
17 16 13 13 13 13 12 13 15 17 18 19 18 20 21 23 26 28 30 31 32 32 33 34 37 40 43 44 45 49 50 50 49 53 51 60 63 46 56 60 59 55 52
18 19 14 13 12 12 12 12 13 16 18 18 17 20 21 23 26 28 29 28 27 28 28 29 33 34 40 44 44 46 50 53 51 50 51 67 67 52 67 62 61 53 50
15 12 13 13 13 12 12 11 12 14 16 17 17 18 20 22 24 26 26 25 25 25 23 24 23 25 25 32 40 45 46 47 51 50 51 71 76 43 66 64 60 57 52
13 15 15 14 14 12 11 10 10 12 14 16 17 18 19 20 23 24 24 24 24 23 21 23 20 21 17 16 23 32 41 45 45 48 54 67 57 49 73 64 62 67 58
13 15 15 14 14 13 11 10 9 11 12 16 17 17 19 19 22 24 23 24 24 25 25 24 23 28 28 30 25 42 42 41 46 49 64 66 50 68 71 67 68 60 57
16 13 11 11 12 13 11 10 9 10 11 15 19 17 17 18 21 23 23 24 27 26 26 28 26 34 36 36 7 22 32 33 40 61 61 48 50 68 61 62 57 55 57
18 16 12 11 11 13 13 12 10 10 12 15 18 17 17 18 20 23 25 25 28 27 27 29 33 36 42 44 12 16 15 25 41 39 59 55 48 59 58 55 58 56 59
21 14 15 12 12 14 15 13 9 8 10 13 16 17 16 17 18 20 25 26 27 28 28 29 34 36 43 47 25 5 6 6 29 41 46 41 52 55 64 60 58 56 57
20 16 15 17 15 13 16 13 9 9 10 11 13 16 14 16 16 19 23 25 26 28 30 31 36 41 48 45 40 25 16 23 23 29 29 29 25 38 52 53 55 58 52
19 17 14 16 15 15 16 14 10 11 9 9 11 14 14 14 15 16 21 25 29 31 33 35 36 44 43 45 39 37 29 27 28 17 19 20 26 22 24 30 34 37 37
19 17 11 13 14 13 15 14 10 11 8 6 9 12 12 13 15 14 19 27 32 34 38 38 44 46 43 41 41 35 35 32 32 27 23 15 15 19 18 22 31 33 28
20 17 14 13 12 13 12 11 12 11 8 6 7 8 9 10 12 16 16 25 31 34 38 40 41 42 43 41 39 34 33 31 31 30 27 22 16 15 19 21 20 22 24
20 17 15 15 14 12 13 10 13 11 7 5 5 6 7 7 7 11 17 21 24 26 29 32 32 35 38 34 31 34 29 28 27 25 29 28 27 26 23 20 17 21 21
18 16 14 14 12 12 14 11 10 10 7 5 3 5 5 5 5 5 7 11 16 21 25 25 29 30 27 28 28 28 29 26 23 24 31 34 33 31 28 27 23 20 15
Wind_Direction
191 196 221 235 254 286 306 325 331 330 331 330 328 321 317 313 309 308 308 309 307 299 287 283 287 278 274 264 255 253 241 224 225 219 226 220 216 233 211 223 223 229 239
181 200 222 234 253 276 301 318 324 326 329 329 325 319 319 316 315 315 314 316 314 307 295 283 270 277 273 268 261 260 253 238 211 228 205 197 201 203 205 212 225 228 232
185 213 220 236 256 281 297 310 318 324 327 326 323 317 314 311 310 311 308 306 303 297 290 285 279 266 268 271 266 261 259 253 222 221 195 185 199 194 203 205 213 225 224
179 186 211 235 257 274 290 305 315 321 324 324 320 320 317 315 314 312 310 307 306 301 296 291 282 273 265 266 268 263 265 258 246 233 231 208 208 176 181 198 199 217 224
194 199 227 245 258 275 288 301 312 318 323 325 322 319 316 314 312 310 309 309 307 303 298 293 289 279 267 262 265 265 262 264 252 247 246 221 200 203 190 189 193 200 223
201 210 224 247 260 276 292 303 313 320 323 324 319 317 314 313 310 310 309 309 306 302 299 296 290 282 273 262 257 265 262 262 258 251 242 255 210 204 197 195 197 196 203
205 220 235 248 267 287 298 305 312 317 321 320 318 312 309 308 309 310 309 307 303 300 299 297 293 287 278 267 258 255 261 260 261 253 245 243 252 202 198 200 203 199 195
218 229 242 253 266 280 292 301 310 317 321 319 314 308 308 309 307 308 307 305 302 299 298 295 291 286 279 268 260 253 256 256 259 257 246 236 247 218 207 204 194 190 191
222 241 256 266 273 282 292 300 309 318 322 318 311 309 308 308 308 308 305 303 302 302 300 294 287 282 276 269 261 255 252 249 247 245 247 245 242 233 210 206 210 201 183
250 259 265 269 273 281 289 300 312 320 322 317 313 312 310 309 309 308 307 305 304 300 296 290 285 279 273 266 260 256 252 249 249 250 252 248 231 248 200 201 213 210 205
278 268 263 269 274 282 291 304 314 321 324 318 313 312 310 311 311 311 311 308 304 301 295 289 283 274 268 263 260 254 250 248 250 249 244 245 240 245 201 204 213 209 202
323 299 270 269 277 284 293 307 318 323 324 319 317 315 312 315 315 316 313 312 306 302 298 290 285 278 268 260 252 250 246 248 246 243 238 241 236 236 200 196 203 202 200
294 312 281 272 278 282 291 305 317 322 324 323 319 315 318 319 321 319 319 316 314 311 303 294 286 282 276 267 259 251 246 243 242 245 245 243 235 237 201 194 198 200 199
289 295 275 271 274 277 286 300 313 323 328 328 321 317 324 326 326 325 325 325 327 316 308 305 288 279 274 265 260 252 247 246 239 232 232 232 235 247 195 192 194 191 190
282 285 282 271 269 271 279 292 310 323 333 331 324 322 328 327 328 329 332 332 338 321 320 318 308 293 277 264 261 249 243 242 236 234 232 227 228 239 192 190 188 192 189
289 297 290 269 267 270 277 284 305 321 336 336 330 328 329 332 333 334 338 345 347 335 336 342 332 333 334 328 272 250 242 238 237 236 231 224 235 242 202 197 199 202 195
298 288 277 268 267 271 276 280 298 316 335 341 337 333 332 336 339 341 345 351 356 346 349 355 347 356 360 343 263 234 227 228 233 230 222 225 239 192 196 199 202 207 210
318 303 278 268 265 268 276 275 289 306 330 347 345 338 336 340 342 346 351 351 1 356 356 2 357 1 1 356 290 203 218 224 220 213 234 238 213 191 199 201 204 211 212
314 300 282 275 264 262 275 282 290 312 329 351 342 341 343 345 345 352 355 358 356 359 0 7 9 6 9 9 118 174 195 242 239 234 220 188 195 201 203 209 203 202 207
305 297 290 282 264 250 261 271 276 290 303 335 343 342 344 351 349 360 360 1 1 360 8 10 18 17 12 26 63 98 126 130 152 133 165 181 184 200 200 202 200 197 201
300 288 271 272 277 258 253 264 265 277 297 323 344 345 349 351 356 5 7 5 5 9 15 15 23 27 28 38 41 57 68 76 92 118 122 135 142 181 193 195 201 205 208
303 303 267 265 270 259 249 255 255 269 289 317 342 354 349 357 0 7 9 13 13 17 22 19 24 34 33 37 41 46 50 65 98 89 99 136 157 152 171 197 201 210 209
301 303 273 264 263 255 253 250 245 266 283 314 340 351 359 0 10 6 17 22 21 20 24 25 24 28 29 32 40 42 49 57 74 86 96 146 173 175 175 191 205 210 209
301 299 277 246 252 251 263 254 233 256 268 297 336 353 3 8 13 20 25 32 25 21 23 26 31 24 33 27 24 33 45 56 64 77 83 96 116 152 161 187 199 197 206
303 298 280 255 234 237 255 254 241 250 246 278 327 355 4 25 31 13 20 25 33 27 24 24 33 30 25 27 27 32 38 46 60 71 80 87 90 95 89 113 141 166 177
302 296 282 258 222 234 245 243 247 244 235 245 296 351 17 38 48 30 25 36 26 24 25 28 27 34 37 28 33 37 44 52 59 66 67 67 66 68 64 72 76 87 124
Height
1475 1476 1478 1479 1480 1480 1481 1479 1479 1479 1477 1477 1475 1473 1472 1473 1473 1473 1474 1475 1476 1477 1478 1478 1477 1481 1480 1483 1485 1487 1490 1491 1498 1502 1508 1513 1515 1519 1525 1531 1535 1532 1534
1470 1473 1474 1476 1477 1478 1477 1476 1477 1475 1473 1472 1471 1469 1467 1467 1467 1467 1469 1471 1471 1472 1474 1475 1476 1474 1474 1476 1479 1481 1483 1484 1489 1494 1500 1504 1509 1511 1517 1521 1526 1531 1531
1466 1468 1472 1474 1474 1474 1473 1474 1473 1471 1469 1468 1467 1465 1462 1462 1464 1464 1465 1468 1468 1468 1469 1470 1470 1471 1469 1469 1473 1476 1477 1478 1481 1485 1481 1489 1492 1499 1508 1511 1513 1524 1526
1463 1467 1469 1470 1470 1471 1471 1471 1470 1468 1467 1465 1463 1459 1458 1458 1459 1459 1461 1461 1461 1461 1462 1463 1464 1465 1465 1463 1465 1469 1469 1472 1470 1474 1473 1473 1477 1484 1497 1503 1500 1516 1520
1462 1466 1466 1467 1467 1468 1468 1467 1466 1465 1463 1460 1456 1454 1453 1454 1453 1454 1454 1454 1453 1453 1454 1455 1456 1456 1457 1457 1456 1458 1461 1461 1465 1465 1468 1470 1470 1478 1475 1489 1495 1503 1513
1460 1462 1463 1464 1465 1465 1464 1463 1462 1460 1457 1455 1453 1450 1450 1450 1450 1450 1448 1446 1445 1445 1446 1446 1445 1446 1446 1447 1449 1447 1450 1452 1454 1456 1457 1458 1460 1457 1467 1475 1488 1483 1494
1457 1459 1460 1461 1460 1460 1460 1460 1459 1458 1454 1451 1449 1447 1448 1447 1446 1444 1441 1439 1437 1437 1437 1435 1434 1433 1434 1436 1438 1438 1437 1440 1438 1440 1445 1450 1451 1453 1459 1466 1476 1483 1486
1454 1456 1457 1457 1457 1457 1457 1457 1456 1453 1450 1447 1445 1444 1443 1442 1441 1439 1436 1432 1429 1428 1427 1425 1423 1422 1421 1422 1424 1425 1424 1427 1425 1424 1427 1431 1434 1445 1449 1454 1461 1477 1477
1450 1452 1453 1454 1454 1454 1454 1453 1452 1448 1445 1442 1441 1440 1439 1438 1436 1433 1430 1426 1422 1418 1416 1414 1412 1410 1408 1409 1410 1410 1410 1414 1416 1419 1423 1427 1431 1434 1439 1447 1448 1456 1465
1448 1449 1450 1451 1451 1451 1450 1449 1447 1443 1441 1439 1437 1435 1434 1433 1431 1427 1422 1418 1414 1409 1405 1401 1399 1397 1395 1395 1396 1394 1394 1396 1396 1400 1405 1409 1409 1413 1425 1431 1438 1447 1447
1447 1447 1446 1446 1447 1446 1445 1444 1442 1440 1437 1435 1433 1431 1430 1428 1424 1419 1415 1410 1404 1399 1394 1389 1385 1383 1382 1382 1381 1380 1381 1382 1385 1388 1393 1393 1404 1408 1408 1418 1426 1436 1442
1443 1442 1442 1441 1441 1441 1440 1440 1438 1436 1434 1431 1429 1427 1425 1422 1417 1413 1408 1402 1395 1388 1382 1377 1372 1369 1367 1367 1366 1365 1366 1365 1365 1373 1385 1381 1392 1393 1397 1404 1412 1424 1431
1438 1438 1437 1437 1436 1437 1437 1436 1435 1433 1431 1428 1425 1423 1420 1416 1411 1407 1400 1394 1386 1378 1372 1367 1361 1356 1352 1350 1348 1348 1349 1352 1352 1351 1349 1353 1364 1375 1382 1390 1399 1412 1422
1433 1433 1432 1432 1433 1433 1433 1433 1433 1431 1428 1424 1421 1419 1415 1410 1406 1400 1394 1387 1379 1371 1364 1358 1351 1345 1339 1334 1332 1332 1332 1335 1341 1349 1354 1358 1364 1370 1365 1376 1389 1402 1412
1429 1429 1429 1429 1429 1430 1430 1430 1429 1427 1424 1421 1418 1415 1410 1406 1401 1395 1389 1381 1372 1366 1358 1349 1341 1333 1326 1321 1317 1316 1315 1315 1325 1331 1334 1341 1351 1353 1357 1366 1379 1391 1401
1428 1427 1426 1426 1426 1427 1427 1426 1426 1424 1422 1418 1414 1410 1406 1402 1397 1391 1384 1375 1368 1361 1352 1343 1334 1325 1315 1309 1304 1303 1302 1300 1297 1308 1315 1324 1328 1334 1348 1360 1370 1378 1388
1425 1424 1423 1422 1422 1423 1423 1423 1422 1421 1419 1415 1411 1408 1403 1399 1394 1388 1380 1373 1365 1358 1348 1339 1331 1320 1308 1299 1288 1287 1289 1296 1292 1298 1307 1324 1326 1323 1338 1351 1362 1374 1383
1423 1421 1420 1419 1419 1419 1419 1419 1419 1418 1416 1413 1409 1406 1402 1397 1391 1385 1379 1372 1364 1357 1348 1337 1327 1316 1302 1292 1274 1274 1279 1285 1286 1288 1292 1296 1312 1317 1331 1342 1355 1364 1374
1422 1419 1418 1417 1416 1416 1415 1416 1415 1414 1413 1411 1408 1404 1400 1395 1389 1383 1377 1370 1362 1355 1346 1336 1324 1311 1295 1281 1266 1272 1276 1283 1294 1286 1285 1290 1297 1313 1328 1336 1346 1356 1366
1418 1416 1415 1414 1414 1414 1413 1413 1413 1412 1411 1409 1407 1403 1398 1393 1388 1383 1376 1369 1362 1355 1344 1335 1325 1315 1297 1280 1266 1275 1279 1282 1262 1263 1274 1282 1296 1306 1319 1328 1339 1346 1359
1412 1411 1410 1409 1410 1410 1409 1410 1410 1409 1409 1408 1405 1401 1397 1392 1388 1382 1377 1370 1362 1355 1345 1335 1327 1313 1297 1286 1288 1283 1281 1269 1265 1269 1272 1288 1296 1306 1317 1324 1333 1344 1354
1407 1406 1404 1404 1406 1406 1406 1407 1407 1407 1407 1406 1403 1400 1396 1392 1387 1382 1377 1370 1361 1354 1349 1339 1328 1319 1303 1298 1292 1292 1283 1275 1273 1278 1282 1291 1299 1304 1316 1323 1328 1339 1349
1403 1401 1399 1400 1401 1401 1402 1403 1404 1404 1404 1403 1401 1399 1396 1391 1388 1383 1377 1371 1363 1355 1351 1342 1327 1319 1319 1309 1305 1304 1295 1294 1290 1290 1294 1296 1299 1305 1313 1322 1328 1336 1345
1398 1396 1395 1395 1396 1397 1398 1400 1400 1401 1401 1400 1400 1398 1395 1392 1388 1385 1380 1374 1369 1361 1355 1348 1343 1339 1336 1330 1324 1318 1313 1305 1301 1301 1298 1299 1304 1312 1314 1319 1328 1334 1339
1393 1391 1390 1390 1391 1393 1394 1396 1396 1398 1399 1398 1397 1396 1394 1392 1389 1387 1383 1376 1373 1371 1365 1366 1367 1360 1346 1346 1341 1332 1328 1321 1318 1316 1311 1312 1315 1314 1317 1322 1326 1331 1338
1388 1386 1386 1385 1386 1389 1390 1392 1393 1394 1396 1396 1396 1395 1394 1392 1389 1387 1386 1383 1379 1373 1370 1367 1363 1364 1365 1354 1348 1346 1337 1330 1325 1321 1320 1320 1319 1322 1329 1328 1330 1333 1336